Regional Weather Roundup
Issued by NWS

Home | Current Version | Previous Version | Text Only | Print | Product List | Glossary Off
Versions: 1 2 3 4 5 6 7 8 9 10 11 12 13 14 15 16 17 18 19 20 21 22 23 24 25 26 27 28 29 30 31 32 33 34 35 36 37 38 39 40 41 42 43 44 45 46 47 48 49 50

000
ASUS43 KMKX 272100
RWRWI

WISCONSIN REGIONAL WEATHER ROUNDUP
NATIONAL WEATHER SERVICE MILWAUKEE/SULLIVAN WI
400 PM CDT TUE SEP 27 2016

NOTE: "FAIR" INDICATES FEW OR NO CLOUDS BELOW 12,000 FEET WITH NO
SIGNIFICANT WEATHER AND/OR OBSTRUCTIONS TO VISIBILITY.

WIZ001-002-006>008-014>016-023>028-272200-
NORTHWEST WISCONSIN

CITY           SKY/WX    TMP DP  RH WIND       PRES   REMARKS
SUPERIOR ARPT  LGT RAIN  49  47  93 NW12      29.74S
ASHLAND        CLOUDY    51  46  83 W9        29.70R
HAYWARD        LGT RAIN  49  46  90 VRB7      29.73R
SIREN          LGT RAIN  49  47  93 NW13      29.77R
CUMBERLAND     RAIN      46  45  93 NW9       29.75S
RICE LAKE      RAIN      49  46  90 W6        29.76S
CHETEK         NOT AVBL
LADYSMITH      LGT RAIN  50  47  89 W10       29.73S
EAU CLAIRE     NOT AVBL
MENOMONIE      RAIN      50  50  99 W9        29.78R
NEW RICHMOND   LGT RAIN  49  45  84 NW8G16    29.79R
OSCEOLA        LGT RAIN  50  47  87 NW8       29.81S
$$

WIZ003>005-009-010-017-018-272200-
NORTH CENTRAL WISCONSIN

CITY           SKY/WX    TMP DP  RH WIND       PRES   REMARKS
MANITOWISH WTR NOT AVBL
ARBOR VITAE    LGT RAIN  49  47  93 N8        29.66R
WOODRUFF       LGT RAIN  49  47  93 N8        29.66R
RHINELANDER    CLOUDY    50  48  93 W10       29.66R
EAGLE RIVER    RAIN      48  47  97 NW10G16   29.64R
LAND O LAKES   DRIZZLE   48  46  90 NW9G18    29.66R
PHILLIPS       DRIZZLE   48  47  95 W8        29.68S
TOMAHAWK       LGT RAIN  49  46  89 W9        29.68R
MEDFORD        RAIN      48  48 100 W10G16    29.70R
MERRILL        RAIN      50  48  93 NW9       29.69R
$$

WIZ029-030-035-036-043>047-272200-
CENTRAL WISCONSIN

CITY           SKY/WX    TMP DP  RH WIND       PRES   REMARKS
WAUSAU         RAIN      49  47  93 W14       29.69R FOG
MOSINEE        LGT RAIN  48  48 100 W12G18    29.71S
MARSHFIELD     LGT RAIN  51  46  83 W13G22    29.72R
STEVENS POINT  RAIN      48  47  95 W6        29.72R
WAUPACA        CLOUDY    55  46  71 W13G18    29.71S
WAUTOMA        CLOUDY    55  45  68 W9        29.73S
WISC RAPIDS    LGT RAIN  52  48  86 W12       29.74R
CAMP DOUGLAS   NOT AVBL
$$

WIZ011>013-019>022-031-037>040-048>050-272200-
NORTHEAST WISCONSIN

CITY           SKY/WX    TMP DP  RH WIND       PRES   REMARKS
ANTIGO         DRIZZLE   49  48  93 W13G18    29.67R
SHAWANO        DRIZZLE   54  48  82 W8        29.68R
OCONTO         NOT AVBL
STURGEON BAY   LGT RAIN  53  50  89 W13       29.66R
GREEN BAY      CLOUDY    53  51  93 W9        29.68R
MANITOWOC      NOT AVBL
APPLETON       CLOUDY    54  43  66 W14G23    29.68S
CLINTONVILLE   NOT AVBL
OSHKOSH        CLOUDY    55  44  66 W12G21    29.71R
$$

WIZ032>034-041-042-053>061-272200-
SOUTHWEST WISCONSIN

CITY           SKY/WX    TMP DP  RH WIND       PRES   REMARKS
LA CROSSE      CLOUDY    62  45  53 NW14      29.74S
SPARTA         DRIZZLE   55  46  69 NW12G20   29.76R
VIROQUA        CLOUDY    61  40  45 W8G21     29.75S
BOSCOBEL       CLOUDY    67  35  30 NW15G25   29.74F
PRAIRIE DU CHI MOSUNNY   67  30  25 W17G28    29.74F
PLATTEVILLE    SUNNY     67  36  32 W20G29    29.75F
$$

WIZ056-057-062-063-064-067-068-272200-
SOUTH CENTRAL WISCONSIN

CITY           SKY/WX    TMP DP  RH WIND       PRES   REMARKS
REEDSBURG      NOT AVBL
BARABOO/DELLS  CLOUDY    55  45  68 NW3       29.74R
LONE ROCK      NOT AVBL
MINERAL POINT  MOSUNNY   66  32  28 W23       29.74F
MADISON        LGT RAIN  59  43  55 W6        29.73S
MIDDLETON      CLOUDY    62  44  52 W12       29.73
WATERTOWN      CLOUDY    58  44  60 NW12      29.73S
MONROE         MOSUNNY   64  34  32 W14G25    29.74S
JANESVILLE     PTSUNNY   66  37  34 W17G23    29.72F
$$

WIZ051-052-058>065-066-070>072-272200-
SOUTHEAST WISCONSIN

CITY           SKY/WX    TMP DP  RH WIND       PRES   REMARKS
MILWAUKEE      CLOUDY    62  42  47 NW17G23   29.73S
WAUKESHA       PTSUNNY   57  43  58 W9G18     29.75R
MILWAUKEE/TIMM CLOUDY    57  39  51 W16G25    29.74R
RACINE         CLOUDY    62  43  49 W9        29.74S
BURLINGTON     CLOUDY    64  40  41 NW15      29.73S
KENOSHA        CLOUDY    65  42  43 W15G23    29.73S
FOND DU LAC    LGT RAIN  54  45  71 W12       29.72R
SHEBOYGAN      CLOUDY    57  44  62 W14       29.71R
WEST BEND      CLOUDY    55  41  58 W15       29.72S
JUNEAU         CLOUDY    56  42  61 W12       29.74S
$$

LSZ147-162-272200-
LAKE SUPERIOR

STATION/POSITION TIME  TEMP    WIND        PRES    WAVE
                       AIR SEA DIR/SP/G            HT/PER
                 (UTC) (F)     (DEG/KT/KT) (MB)    (FT/S)
W MID LAKE BUOY  1950   51 47  290/ 10/ 10 1002.9R   3/ 5
DEVILS ISLAND    2000   52     290/ 13/ 15 1004.7R
SAXON HARBOR     2040   53     290/ 11/ 15 1005.4R
$$

LMZ867-665-643>646-272200-
LAKE MICHIGAN

STATION/POSITION TIME  TEMP    WIND        PRES    WAVE
                       AIR SEA DIR/SP/G            HT/PER
                 (UTC) (F)     (DEG/KT/KT) (MB)    (FT/S)
CHAMBERS ISLAND  2000   53     230/  5/ 14 1003.0S
N MID LAKE BUOY  1950   54 66  270/ 17/ 21 1002.1R   4/ 6
NORTHPORT PIER   1900   52     290/  8/ 16 1003.0R
SISTER BAY       1938   53     280/ 15/ 18   N/A
ALGOMA LAKESHORE 2017          330/  7/ 13   N/A
KEWAUNEE LAKESHO 2000   55     280/  5/  9 1004.1R
SHEBOYGAN LAKESH 2000   57     260/ 16/ 19 1005.3S
PORT WASHINGTON  2000   61     280/  9/ 16 1007.1R
ATWATER BUOY     2000   58 53  260/ 16/ 17 1006.8R
MILWAUKEE LAKESH 2010   60     270/ 16/ 20   N/A
S MID LAKE BUOY  1950   60 70  300/ 16/ 19 1006.1R   4/ 5
KENOSHA   LAKESH 2000   65     270/ 10/ 19 1006.4S
$$

TC  - TEMPERATURE IN CELSIUS
VSB - VISIBILITY IN STATUTE MILES
WCI - WIND CHILL INDEX
HX  - HEAT INDEX




USA.gov is the U.S. government's official web portal to all federal, state and local government web resources and services.